Vertical_Velocity
-2 2 4 5 4 1 1 1 0 3 3 2 2 1 3 -1 1 0 -2 -2 -2 1 0 2 -1 3 3 1 -2 -2 -3 -2 -1 -1 -1 -2 -2 1 3 4 6 4 3 2
6 0 -2 1 2 -1 2 1 2 3 0 -0 2 0 -1 2 0 -1 1 1 0 -2 -2 1 0 -1 -1 -4 -5 -1 1 -1 -2 -2 -3 1 0 1 -1 0 0 0 1 1
-5 -1 -1 3 -1 2 0 1 -0 1 -2 2 2 2 -1 1 2 1 1 0 -1 -1 -1 -1 -0 2 1 3 2 -2 -4 -3 -4 -5 -3 -6 -3 -1 3 2 0 -1 -1 -2
4 4 2 2 2 3 -2 -1 -1 2 0 -1 -0 -1 -2 1 3 1 -1 -1 -2 -1 1 -1 -2 -2 -1 -1 0 1 -1 -0 -1 -1 -0 -0 -3 -4 -5 -6 -7 -5 -3 -3
1 1 1 -1 1 -1 -3 1 4 -0 -8 -5 -5 -6 -0 1 3 1 1 -0 0 1 -1 -2 -2 -2 -1 -2 -2 -3 -2 -0 -4 -5 -5 -3 -1 0 2 3 2 4 5 5
-2 1 1 2 -2 2 1 -1 -2 -1 -2 -8 -2 -2 2 3 -0 1 -1 0 1 -0 -2 -3 -5 -2 -6 -5 -1 -0 -4 -4 -2 1 2 1 2 3 3 2 1 -0 -1 0
1 -1 2 2 1 -2 -0 1 0 -4 -4 -1 4 -5 7 2 -0 -1 -2 0 -1 -0 1 -1 -4 -1 -0 -1 -2 -2 -1 -2 -1 -0 2 3 3 1 -1 1 3 2 2 2
-1 1 3 3 -0 1 0 -0 -2 -3 -2 1 1 -1 5 1 -1 -0 -0 0 -0 0 -1 0 1 0 0 -0 -1 -1 -1 -1 1 2 2 4 3 3 2 1 -2 -2 -4 -1
0 0 -0 -0 2 2 0 -1 1 0 -0 -0 1 2 -0 -0 -2 -3 -4 -2 -0 0 1 1 0 -0 -2 -2 -1 -2 -1 -1 0 -0 0 -1 -1 -2 -3 -2 -4 -3 -4 -3
-0 -1 0 1 -1 -0 0 1 0 -0 -3 -2 1 1 -1 -1 -2 -2 -1 -0 -1 -1 -0 -1 -2 -1 -2 -2 -2 -1 -0 0 -2 -2 -1 -2 -3 -3 -2 -3 -1 -1 -3 -4
0 1 -1 -1 -1 0 0 0 -1 -1 -1 -2 -0 1 -1 -1 1 -0 -1 -1 0 -0 -1 0 1 1 1 2 1 -1 2 -2 -2 -0 -1 -2 -1 -0 -0 0 -0 -3 -3 -3
0 0 -0 -2 -2 -1 -1 0 0 -0 1 0 0 6 3 0 -0 0 1 0 -1 -1 0 2 1 -0 -1 -1 -2 -1 -2 -1 2 -3 1 2 1 0 0 -0 -1 -2 1 -2
-1 -1 -1 -1 -1 -0 0 2 1 1 1 2 0 -0 -1 -1 1 0 -2 -2 -1 0 -0 -1 -2 -4 -3 -2 -3 -1 -0 0 -3 -2 0 0 -0 -1 -3 -2 -4 -2 -1 -3
-1 0 1 0 -2 -4 -1 -1 -1 -1 -0 -0 2 1 -4 2 2 2 -0 1 1 0 -1 -2 -3 -3 -0 -1 -0 1 -1 -1 -1 -1 -2 -1 -2 -3 -5 -3 -2 -2 -5 -4
-0 1 -1 -1 -1 -2 -1 -1 -3 -0 -2 -3 3 0 -4 -3 1 -2 -0 1 0 0 -0 1 0 1 -0 1 2 2 -0 -1 0 -2 -5 -4 -2 -1 -3 -1 -4 -3 -2 -2
-1 -0 -1 -1 -1 -0 -1 -3 -1 1 0 2 -5 9 -7 1 1 -1 1 2 0 -0 1 2 1 2 2 3 2 -0 -1 -1 0 -3 -3 -3 0 4 -4 -4 -3 -3 -2 -5
1 -0 -1 -1 -1 -4 -5 6 -1 0 3 -3 -1 0 -3 -1 -1 1 -1 -1 -1 2 3 0 -0 1 1 2 1 -1 -0 1 -1 -0 0 -1 0 -0 -3 -2 -3 -5 -3 -2
0 -1 -2 0 -0 -16 11 5 1 0 1 -3 2 -1 -0 -1 1 2 -1 0 2 -0 0 1 1 1 0 -1 -0 -0 1 -0 1 -0 2 -0 -4 -1 -4 -3 -5 -3 -6 -3
0 0 -2 -8 1 0 4 3 -1 -1 14 3 3 -2 1 0 2 0 0 3 -1 1 1 -0 0 -1 -1 1 1 0 -1 1 1 0 -1 -1 -3 -2 -3 -1 -3 -4 -1 -0
-0 -1 -1 2 -5 -5 6 5 2 -5 4 -1 -1 1 -0 -0 2 2 0 1 -1 3 -0 1 -1 -1 -1 0 -1 -1 2 2 -0 -2 1 -1 -3 -3 -2 -5 -3 -2 -2 -2
-2 -2 -1 -2 -4 3 6 -1 -3 -2 -11 2 1 0 2 1 -3 2 1 1 1 -0 0 1 -1 -2 0 1 1 2 1 -1 -1 2 -2 -3 -4 -3 -4 -1 -2 -1 0 -0
-0 -4 1 -1 -3 2 1 1 1 -1 -2 -2 0 1 -0 0 2 1 5 2 1 2 2 3 -0 1 0 1 1 0 -1 2 1 -2 -4 -4 -3 -4 -1 -0 -2 -3 -1 -0
-2 -4 -1 1 1 -0 -5 -1 -1 1 2 -3 1 -2 -2 2 -1 1 1 1 2 4 2 -0 1 2 0 -1 2 3 4 3 1 -1 -2 -3 -1 -3 -1 -2 -2 -2 -2 0
-0 -1 0 -5 6 -1 -4 -0 -0 -2 1 0 0 2 -1 -1 -1 1 1 2 1 1 -1 0 1 -2 -1 0 -1 2 1 -1 -1 1 -4 -5 -2 -3 -5 -3 -2 -3 -2 -2
3 1 -3 1 3 -4 3 -1 -0 -1 -2 -0 -1 -1 1 -1 2 -1 -2 0 -0 -5 -1 4 1 0 1 1 1 4 -2 1 -1 -5 -4 -3 -5 -4 -2 -4 -3 -3 -1 -1
-1 -4 -5 -2 -1 -3 5 1 -1 2 -1 -3 -1 1 1 2 -0 0 -0 -1 -5 -6 -6 -3 3 3 3 3 2 1 1 -0 -2 -1 -3 -6 -5 -4 -3 -3 -2 -1 -1 -1
Height
5776 5782 5786 5789 5791 5793 5794 5797 5798 5800 5802 5804 5806 5809 5811 5812 5812 5813 5814 5814 5813 5814 5814 5814 5813 5812 5812 5811 5810 5807 5805 5802 5798 5795 5790 5786 5781 5777 5773 5768 5764 5760 5755 5751
5780 5782 5785 5788 5791 5792 5794 5796 5798 5800 5801 5804 5806 5808 5809 5811 5811 5811 5811 5811 5811 5811 5811 5809 5808 5808 5806 5804 5802 5800 5798 5794 5791 5787 5783 5778 5775 5771 5766 5761 5756 5752 5747 5742
5779 5783 5785 5788 5789 5791 5793 5795 5798 5800 5801 5803 5805 5808 5808 5809 5809 5809 5808 5808 5807 5807 5806 5806 5804 5802 5800 5800 5799 5796 5792 5788 5785 5781 5777 5771 5766 5761 5757 5752 5747 5742 5737 5731
5779 5782 5784 5786 5788 5790 5792 5795 5797 5798 5800 5802 5803 5805 5805 5806 5807 5806 5805 5804 5803 5803 5803 5801 5798 5797 5795 5793 5791 5787 5784 5780 5776 5771 5766 5762 5757 5752 5747 5742 5736 5731 5726 5720
5780 5781 5783 5784 5786 5788 5791 5794 5795 5796 5798 5799 5801 5801 5802 5802 5803 5802 5801 5800 5799 5799 5798 5796 5793 5791 5789 5785 5783 5780 5776 5772 5766 5761 5757 5752 5748 5743 5738 5732 5727 5721 5715 5709
5777 5779 5780 5783 5785 5788 5790 5791 5793 5794 5795 5796 5796 5796 5796 5797 5797 5796 5795 5794 5794 5794 5792 5789 5786 5785 5782 5780 5777 5773 5768 5763 5759 5755 5751 5746 5741 5735 5729 5722 5715 5709 5702 5695
5775 5777 5780 5782 5784 5786 5787 5789 5790 5791 5791 5791 5791 5790 5792 5791 5790 5789 5789 5789 5789 5788 5786 5784 5782 5779 5776 5773 5769 5765 5761 5756 5751 5747 5743 5737 5731 5724 5717 5710 5703 5696 5688 5680
5773 5776 5778 5780 5782 5784 5784 5785 5787 5786 5787 5788 5787 5786 5787 5786 5785 5784 5784 5784 5783 5783 5781 5779 5776 5773 5770 5767 5763 5759 5755 5750 5744 5738 5732 5726 5719 5712 5705 5697 5689 5682 5673 5665
5771 5773 5775 5777 5778 5780 5781 5782 5784 5783 5783 5783 5783 5783 5782 5782 5781 5782 5782 5781 5780 5778 5777 5775 5772 5768 5765 5762 5757 5753 5748 5742 5736 5729 5723 5716 5708 5699 5691 5684 5677 5668 5660 5651
5769 5770 5772 5773 5774 5776 5777 5780 5781 5781 5781 5781 5781 5781 5781 5781 5781 5780 5779 5778 5776 5774 5772 5769 5766 5763 5759 5755 5751 5745 5739 5733 5726 5718 5711 5703 5694 5687 5679 5672 5664 5655 5645 5635
5766 5768 5770 5770 5772 5774 5776 5777 5778 5779 5779 5779 5780 5781 5779 5779 5778 5777 5776 5774 5772 5769 5766 5763 5759 5755 5750 5745 5740 5733 5727 5719 5713 5706 5699 5691 5683 5676 5668 5659 5650 5640 5629 5618
5762 5763 5766 5768 5769 5771 5773 5775 5775 5776 5778 5777 5777 5778 5776 5775 5774 5772 5771 5769 5766 5763 5760 5756 5751 5745 5740 5734 5728 5722 5715 5709 5702 5694 5686 5679 5671 5662 5654 5645 5634 5623 5611 5599
5759 5761 5764 5766 5769 5770 5771 5772 5773 5773 5774 5774 5774 5774 5771 5769 5768 5766 5764 5761 5758 5755 5750 5746 5741 5735 5730 5724 5717 5711 5704 5697 5689 5681 5674 5666 5657 5648 5640 5630 5619 5607 5596 5583
5757 5759 5762 5764 5765 5766 5768 5769 5769 5770 5770 5770 5770 5768 5766 5765 5764 5761 5758 5755 5751 5746 5741 5736 5730 5725 5719 5712 5706 5700 5692 5684 5677 5669 5660 5652 5644 5635 5626 5615 5604 5592 5580 5566
5755 5757 5759 5760 5762 5763 5764 5765 5766 5766 5765 5765 5765 5763 5758 5759 5757 5754 5751 5746 5742 5736 5732 5726 5721 5715 5708 5701 5695 5688 5679 5672 5664 5655 5647 5639 5630 5621 5610 5599 5588 5576 5561 5546
5752 5755 5756 5757 5759 5760 5760 5761 5761 5761 5760 5759 5757 5758 5752 5750 5747 5745 5741 5736 5732 5726 5721 5715 5709 5704 5697 5691 5683 5675 5667 5659 5651 5643 5634 5625 5616 5606 5595 5584 5570 5556 5541 5525
5750 5752 5753 5754 5755 5754 5755 5759 5756 5755 5754 5752 5750 5749 5745 5742 5738 5735 5730 5725 5720 5715 5710 5704 5698 5693 5686 5678 5670 5662 5655 5646 5638 5629 5620 5612 5603 5592 5579 5565 5552 5538 5522 5504
5747 5748 5749 5749 5750 5747 5753 5753 5751 5748 5746 5744 5742 5738 5734 5731 5728 5725 5719 5714 5710 5704 5698 5692 5686 5679 5673 5665 5657 5650 5642 5634 5626 5617 5608 5598 5588 5576 5562 5549 5535 5519 5502 5487
5742 5743 5743 5742 5743 5742 5743 5744 5743 5740 5738 5735 5731 5727 5723 5720 5716 5713 5707 5703 5697 5691 5685 5679 5673 5667 5660 5653 5646 5638 5630 5622 5614 5605 5594 5583 5571 5559 5547 5533 5517 5500 5486 5474
5737 5736 5736 5736 5734 5733 5734 5734 5732 5729 5726 5724 5720 5716 5713 5708 5705 5699 5694 5689 5683 5678 5672 5666 5660 5654 5648 5640 5633 5625 5617 5609 5600 5590 5579 5568 5556 5544 5531 5516 5500 5485 5473 5462
5731 5730 5730 5729 5726 5725 5725 5723 5721 5718 5717 5711 5708 5705 5701 5697 5692 5687 5681 5677 5671 5665 5660 5654 5648 5641 5634 5627 5620 5612 5604 5595 5585 5575 5564 5553 5541 5528 5514 5498 5484 5472 5461 5450
5724 5723 5723 5721 5718 5716 5714 5712 5709 5706 5701 5698 5695 5692 5687 5683 5679 5674 5669 5664 5659 5654 5648 5641 5634 5628 5621 5614 5606 5599 5590 5581 5571 5561 5550 5539 5527 5513 5498 5484 5471 5460 5450 5440
5718 5717 5714 5714 5711 5706 5702 5699 5696 5693 5690 5686 5683 5678 5674 5671 5666 5662 5658 5653 5647 5641 5635 5627 5620 5614 5607 5599 5593 5585 5576 5567 5557 5547 5536 5525 5512 5497 5484 5472 5460 5449 5439 5431
5707 5705 5704 5702 5700 5694 5690 5687 5684 5680 5677 5674 5670 5666 5662 5658 5654 5650 5646 5641 5634 5627 5621 5614 5607 5600 5592 5586 5579 5571 5563 5553 5543 5533 5521 5509 5497 5484 5471 5460 5448 5438 5429 5423
5697 5694 5691 5688 5686 5682 5680 5678 5674 5670 5666 5663 5658 5655 5651 5647 5643 5638 5632 5626 5620 5613 5607 5602 5594 5586 5579 5572 5564 5556 5548 5538 5528 5517 5506 5494 5483 5472 5460 5447 5437 5428 5421 5415
5686 5681 5677 5675 5674 5671 5670 5667 5663 5660 5656 5652 5649 5645 5641 5636 5631 5625 5618 5612 5605 5598 5592 5586 5580 5573 5566 5558 5550 5542 5533 5523 5513 5503 5491 5480 5469 5458 5447 5437 5427 5420 5414 5408